SENTINEL-1A (39634 NORAD) Tracking and Keplerian Element Data

This shows tracking and keplerian element data for the satellite.

Feedback or suggestion? Click here.




ElementValue
Catalog39634
NameSENTINEL-1A
Epoch Orbit24983
Epoch Day345.86456026
Epoch Year2018
RAAN350.7595
Inclination98.1816
Eccentricity0.0001313
Argument of Perigee82.1923
Mean Anonmoly277.9426
Mean Motion14.59201038
Decay Rate9.6E-07
L11 39634U 14016A 18345.86456026 .00000096 00000-0 30139-4 0 9990
L22 39634 98.1816 350.7595 0001313 82.1923 277.9426 14.59201038249833

Live tracking and technical data element details for SENTINEL-1A (NORAD 39634). SENTINEL-1A can be tracked NOW for your location showing map with azimuth and elevation plus other details from your city location.

Track the satellite on the map from your city or location and see movement details for azimuth, elevation, latitude, longitude, range, height, and movement on the map or in text.







IsCatalogInMostPopularTable: catalog: 39634, numindb: 112
Update: records affected: 1



GetName: 39634 SENTINEL-1A

Hit Count: updated at: Thu, 13 Dec 2018 03:27:03 GMT